Weather History for Belize, Belize

Change the Weather History Date:

Wednesday, January 15, 2014

  Actual Average Record
Temperature  
Mean Temperature 74 °F -  
Max Temperature 78 °F - 87 °F (1998)
Min Temperature 69 °F - 60 °F (2006)
Cooling Degree Days 8    
Growing Degree Days 24 (Base 50)    
Moisture  
Dew Point 70 °F    
Average Humidity 92    
Maximum Humidity 100    
Minimum Humidity 72    
Precipitation  
Precipitation 0.12 in 0.14 in - ()
Sea Level Pressure  
Sea Level Pressure 30.05 in    
Wind  
Wind Speed 6 mph ()    
Max Wind Speed 12 mph    
Max Gust Speed -    
Visibility 6.5 miles    
Events Rain    
Averages and records for this station are not official NWS values.
T = Trace of Precipitation, MM = Missing Value Source: Averaged Metar Reports

Daily Weather History Graph

Daily Weather History Graph

Search for Another Location

Airport:

Trip Planner

Search our weather history database for the weather conditions in past years. The results will help you decide how hot, cold, wet, or windy it might be!

Date:

Astronomy

Jan. 15, 2014 Rise Set
Actual Time 6:26 AM CST 5:38 PM CST
Civil Twilight 6:03 AM CST 6:01 PM CST
Nautical Twilight 5:36 AM CST 6:28 PM CST
Astronomical Twilight 5:10 AM CST 6:55 PM CST
Moon 5:27 PM CST (1/15) 5:49 AM CST (1/15)
Length of Visible Light 11h 58m
Length of Day
11h 11m
Full, 100% of the Moon is Illuminated
Jan 15
Full
Jan 15
Full
Jan 23
Last Quarter
Jan 30
New
Feb 6
First Quarter

Hourly Weather History & Observations

Time (CST) Temp. Dew Point Humidity Pressure Visibility Wind Dir Wind Speed Gust Speed Precip Events Conditions
12:00 AM 74 °F 72 °F 91% 30.00 in 12 mi Calm Calm - -   Mostly Cloudy
3:00 AM 72 °F 71 °F 97% 29.97 in 12 mi NNW 4.6 mph - -   Mostly Cloudy
5:00 AM 71.6 °F 71.6 °F 100% 29.98 in 6.2 mi South 2.3 mph - N/A Rain Light Rain Showers
6:00 AM 71 °F 70 °F 97% 30.01 in 12 mi North 8.1 mph - - Rain Light Rain Showers
6:00 AM 71.6 °F 69.8 °F 94% 30.01 in 6.2 mi North 8.1 mph - N/A   Mostly Cloudy
7:00 AM 71.6 °F 71.6 °F 100% 30.01 in 6.2 mi NW 6.9 mph - N/A   Mostly Cloudy
8:00 AM 71.6 °F 69.8 °F 94% 30.04 in 6.2 mi WNW 5.8 mph - N/A   Mostly Cloudy
9:00 AM 73 °F 71 °F 89% 30.09 in 14 mi North 6.9 mph - -   Mostly Cloudy
9:00 AM 73.4 °F 69.8 °F 88% 30.08 in 6.2 mi North 6.9 mph - N/A   Mostly Cloudy
10:00 AM 75.2 °F 69.8 °F 83% 30.08 in 6.2 mi NNW 8.1 mph - N/A   Mostly Cloudy
11:00 AM 75.2 °F 69.8 °F 83% 30.07 in 6.2 mi North 3.5 mph - N/A   Mostly Cloudy
11:22 AM 75.2 °F 69.8 °F 83% 30.06 in 3.1 mi North 10.4 mph - N/A Rain Light Rain
12:00 PM 73 °F 71 °F 92% 30.06 in 3 mi North 11.5 mph - - Rain Light Rain
12:00 PM 73.4 °F 71.6 °F 94% 30.05 in 2.8 mi North 11.5 mph - N/A Rain Light Rain
1:00 PM 71.6 °F 69.8 °F 94% 30.03 in 3.1 mi North 11.5 mph - N/A Rain Light Rain
1:23 PM 71.6 °F 69.8 °F 94% 30.02 in 6.2 mi North 10.4 mph - N/A   Overcast
2:00 PM 73.4 °F 71.6 °F 94% 30.03 in 6.2 mi North 9.2 mph - N/A   Overcast
2:17 PM 73.4 °F 71.6 °F 94% 30.03 in 2.5 mi North 8.1 mph - N/A Rain Light Rain
3:00 PM 72 °F 70 °F 93% 30.04 in 4 mi NW 6.9 mph - - Rain Light Rain
3:00 PM 71.6 °F 69.8 °F 94% 30.03 in 4.3 mi NW 6.9 mph - N/A Rain Light Rain
4:00 PM 71.6 °F 68.0 °F 88% 30.05 in 6.2 mi NNE 6.9 mph - N/A   Overcast
4:46 PM 69.8 °F 68.0 °F 94% 30.06 in 3.1 mi North 4.6 mph - N/A Rain Light Rain
5:00 PM 71.6 °F 69.8 °F 94% 30.07 in 3.1 mi North 5.8 mph - N/A Rain Light Rain
5:03 PM 71.6 °F 69.8 °F 94% 30.07 in 5.0 mi North 6.9 mph - N/A Rain Light Rain
6:00 PM 71 °F 70 °F 95% 30.10 in 11 mi NW 5.8 mph - - Rain Light Rain
6:00 PM 71.6 °F 69.8 °F 94% 30.09 in 5.6 mi NW 5.8 mph - N/A Rain Light Rain
9:00 PM 69 °F 62 °F 72% 30.18 in 12 mi NNW 10.4 mph - -   Partly Cloudy